Regional Weather Roundup
Issued by NWS Huntsville, AL

Home | Current Version | Previous Version | Text Only | Print | Product List | Glossary On
Versions: 1 2 3 4 5 6 7 8 9 10 11 12 13 14 15 16 17 18 19 20 21 22 23 24 25 26 27 28 29 30 31 32 33 34 35 36 37 38 39 40 41 42 43 44 45 46 47 48 49 50
000
ASUS44 KHUN 231910
RWRHUN

WEATHER ROUNDUP FOR THE TENNESSEE VALLEY
NATIONAL WEATHER SERVICE HUNTSVILLE AL
200 PM CDT SUN APR 23 2017

ALZ001>004-232000-
NORTHWEST ALABAMA

CITY           SKY/WX    TMP DP  RH WIND       PRES   REMARKS
COURTLAND HCN    N/A     55 N/A N/A NW8         N/A
RUSSELLVILLE     N/A     54 N/A N/A MISG        N/A
SHOALS AIRPORT CLOUDY    56  49  77 NW7       29.86S
SHOALS TVA RES   N/A     54 N/A N/A MISG        N/A
$$

ALZ005>007-016-232000-
NORTH CENTRAL ALABAMA

CITY           SKY/WX    TMP DP  RH WIND       PRES   REMARKS
CULLMAN AG STN   N/A     57 N/A N/A NW5         N/A
DECATUR AP     CLOUDY    56  53  90 NW8       29.83S
HUNTSVILLE AP  CLOUDY    58  55  90 NW8       29.82S FOG
MERIDIANVILLE  LGT RAIN  54  52  94 CALM      29.81F
REDSTONE ARSN  CLOUDY    55  54  96 NW8       29.82R
VINEMONT AP    LGT RAIN  55  52  87 NW7       29.84S
$$

ALZ008>010-232000-
NORTHEAST ALABAMA

CITY           SKY/WX    TMP DP  RH WIND       PRES   REMARKS
ALBERTVILLE    CLOUDY    59  59 100 NW8       29.79S
FORT PAYNE     CLOUDY    61  52  72 W9        29.77F
SCOTTSBORO AP  CLOUDY    57  55  94 NW8       29.80S
SCOTTSBORO HCN   N/A     59 N/A N/A MISG        N/A
VALLEY HEAD      N/A     61 N/A N/A MISG        N/A
$$

TNZ076-096-097-232000-
SOUTHEASTERN MIDDLE TENNESSEE

CITY           SKY/WX    TMP DP  RH WIND       PRES   REMARKS
TULLAHOMA      CLOUDY    54  54 100 NW6       29.80F
WINCHESTER     CLOUDY    55  54  94 CALM      29.79F
$$

...SURROUNDING SITES...

CITY           SKY/WX    TMP DP  RH WIND       PRES   REMARKS
ATLANTA        LGT RAIN  63  61  93 W18G33    29.76S FOG
ANNISTON       CLOUDY    65  58  78 W8        29.79F
BIRMINGHAM     CLOUDY    64  53  67 W10       29.83F
CHATTANOOGA    LGT RAIN  62  59  90 CALM      29.75F
CORINTH        CLOUDY    52  46  82 N12       29.90R
DALTON         RAIN      59  59 100 CALM      29.76F
GADSDEN        CLOUDY    67  56  67 SW10      29.78S
GOLDEN TRNGL   CLOUDY    55  46  71 NW12      29.85F
HALEYVILLE     CLOUDY    54  50  86 NW7       29.86F
JACKSON TN     RAIN      49  48  97 NE8       29.93S FOG
MEMPHIS        CLOUDY    58  48  69 N13       29.93S
NASHVILLE      LGT RAIN  51  48  89 N14       29.85F
OXFORD MS      CLOUDY    52  45  76 N14G22    29.94S
ROME           LGT RAIN  61  57  87 CALM      29.76F
SAVANNAH       CLOUDY    50  48  93 N13G18    29.89R
TUPELO         CLOUDY    55  47  74 NW8       29.89F
TUSCALOOSA     RAIN      58  53  84 NW12      29.85F
$$

...GULF COAST WEATHER...

CITY           SKY/WX    TMP DP  RH WIND       PRES   REMARKS
GULFPORT       PTSUNNY   69  54  58 NW13      29.87F
PASCAGOULA     MOSUNNY   72  53  51 N10G16    29.86F
MOBILE         PTSUNNY   69  52  54 NW9G22    29.87F
GULF SHORES    MOCLDY    69  57  66 NW16      29.84F
PENSACOLA      PTSUNNY   69  57  65 NW10      29.83F
DESTIN         PTSUNNY   76  68  76 NW15      29.80
PANAMA CITY    PTSUNNY   78  69  73 S13G21    29.79F
APPALACHICOLA  SUNNY     80  69  69 S15G22    29.81F
$$




USA.gov is the U.S. government's official web portal to all federal, state and local government web resources and services.